When you browse on this site, cookies collect data to enhance your experience and personalize the content and advertising you see.
Visit our Privacy Policy to learn more. By continuing to use the site, you agree to this use of cookies and data.
  • In Slovakia
  • List of Countries
  • For 7 days
  • Water Temperature
  • Satellite Maps
  • Weather Map
  • Weather Widgets
  • user-avatar
    Login

    Hourly Weather Aracaju

    Today, 11 December, Tuesday

    Time Temperature Precipitation Wind Pressure Humidity
    00:00 +27°C° 0.1 mm 4 mps 762 mmHg 85%
    01:00 +27°C° 0.1 mm 4 mps 761 mmHg 85%
    02:00 +27°C° 0.1 mm 4 mps 761 mmHg 85%
    03:00 +27°C° 0.1 mm 4 mps 761 mmHg 85%
    04:00 +27°C° 0.1 mm 4 mps 761 mmHg 86%
    05:00 +27°C° 0.1 mm 4 mps 761 mmHg 84%
    06:00 +27°C° 0.1 mm 4 mps 761 mmHg 83%
    07:00 +27°C° 0.1 mm 5 mps 761 mmHg 82%
    08:00 +29°C° 0.1 mm 5 mps 761 mmHg 77%
    09:00 +30°C° 0.1 mm 6 mps 761 mmHg 71%
    10:00 +32°C° 0.1 mm 6 mps 762 mmHg 65%
    11:00 +32°C° 0.1 mm 6 mps 761 mmHg 64%
    12:00 +32°C° 0.1 mm 6 mps 761 mmHg 62%
    13:00 +33°C° 0.1 mm 6 mps 761 mmHg 61%
    14:00 +33°C° 0 mm 6 mps 761 mmHg 61%
    15:00 +32°C° 0 mm 6 mps 760 mmHg 61%
    16:00 +32°C° 0 mm 6 mps 760 mmHg 61%
    17:00 +30°C° 0.1 mm 6 mps 760 mmHg 66%
    18:00 +29°C° 0.1 mm 5 mps 760 mmHg 71%
    19:00 +28°C° 0.1 mm 5 mps 760 mmHg 75%
    20:00 +28°C° 0.1 mm 5 mps 761 mmHg 77%
    21:00 +27°C° 0.1 mm 5 mps 761 mmHg 79%
    22:00 +27°C° 0.1 mm 5 mps 762 mmHg 80%
    23:00 +27°C° 0.1 mm 4 mps 761 mmHg 81%

    Tomorrow, 12 December, Wednesday

    Time Temperature Precipitation Wind Pressure Humidity
    00:00 +27°C° 0.1 mm 4 mps 761 mmHg 81%
    01:00 +27°C° 0.1 mm 4 mps 761 mmHg 82%
    02:00 +27°C° 0.1 mm 4 mps 761 mmHg 82%
    03:00 +26°C° 0.1 mm 4 mps 760 mmHg 82%
    04:00 +26°C° 0.1 mm 4 mps 760 mmHg 83%
    05:00 +27°C° 0.1 mm 4 mps 760 mmHg 82%
    06:00 +27°C° 0.1 mm 4 mps 760 mmHg 81%
    07:00 +27°C° 0.1 mm 4 mps 761 mmHg 80%
    08:00 +28°C° 0.1 mm 4 mps 761 mmHg 74%
    09:00 +29°C° 0.1 mm 5 mps 761 mmHg 68%
    10:00 +32°C° 0.1 mm 5 mps 761 mmHg 62%
    11:00 +32°C° 0.1 mm 5 mps 761 mmHg 60%
    12:00 +33°C° 0.1 mm 6 mps 761 mmHg 58%
    13:00 +33°C° 0.1 mm 6 mps 760 mmHg 56%
    14:00 +33°C° 0.1 mm 6 mps 760 mmHg 57%
    15:00 +33°C° 0.1 mm 6 mps 759 mmHg 58%
    16:00 +32°C° 0.1 mm 5 mps 759 mmHg 59%
    17:00 +30°C° 0.1 mm 5 mps 759 mmHg 64%
    18:00 +29°C° 0.1 mm 5 mps 759 mmHg 69%
    19:00 +28°C° 0.1 mm 5 mps 759 mmHg 74%
    20:00 +28°C° 0.1 mm 5 mps 760 mmHg 76%
    21:00 +27°C° 0.1 mm 4 mps 760 mmHg 79%
    22:00 +27°C° 0.1 mm 4 mps 761 mmHg 81%
    23:00 +27°C° 0.1 mm 4 mps 760 mmHg 82%

    Day after tomorrow, 13 December, Thursday

    Time Temperature Precipitation Wind Pressure Humidity
    00:00 +27°C° 0.1 mm 4 mps 760 mmHg 83%
    01:00 +27°C° 0.1 mm 4 mps 760 mmHg 83%
    02:00 +26°C° 0.1 mm 4 mps 760 mmHg 84%
    03:00 +26°C° 0.1 mm 4 mps 759 mmHg 84%
    04:00 +26°C° 0.1 mm 4 mps 759 mmHg 84%
    05:00 +26°C° 0.1 mm 4 mps 759 mmHg 83%
    06:00 +27°C° 0.1 mm 4 mps 759 mmHg 82%
    07:00 +27°C° 0.1 mm 4 mps 760 mmHg 81%
    08:00 +28°C° 0.1 mm 4 mps 760 mmHg 74%
    09:00 +29°C° 0.1 mm 5 mps 760 mmHg 68%
    10:00 +32°C° 0.1 mm 5 mps 760 mmHg 62%
    11:00 +32°C° 0 mm 5 mps 760 mmHg 61%
    12:00 +33°C° 0 mm 6 mps 759 mmHg 59%
    13:00 +33°C° 0 mm 6 mps 759 mmHg 58%
    14:00 +33°C° 0 mm 6 mps 758 mmHg 60%
    15:00 +32°C° 0 mm 6 mps 758 mmHg 62%
    16:00 +32°C° 0 mm 6 mps 757 mmHg 64%
    17:00 +30°C° 0 mm 5 mps 758 mmHg 67%
    18:00 +29°C° 0 mm 5 mps 758 mmHg 71%
    19:00 +28°C° 0 mm 4 mps 759 mmHg 75%
    20:00 +28°C° 0 mm 4 mps 759 mmHg 77%
    21:00 +27°C° 0 mm 4 mps 759 mmHg 79%
    22:00 +27°C° 0 mm 4 mps 760 mmHg 81%
    23:00 +27°C° 0.1 mm 4 mps 760 mmHg 81%

    14 December, Friday

    Time Temperature Precipitation Wind Pressure Humidity
    00:00 +27°C° 0.1 mm 4 mps 759 mmHg 82%
    01:00 +27°C° 0.1 mm 4 mps 759 mmHg 83%
    02:00 +26°C° 0.1 mm 3 mps 759 mmHg 83%
    03:00 +26°C° 0.1 mm 3 mps 759 mmHg 83%
    04:00 +26°C° 0.1 mm 3 mps 758 mmHg 83%
    05:00 +26°C° 0.1 mm 4 mps 759 mmHg 82%
    06:00 +27°C° 0.1 mm 4 mps 759 mmHg 81%
    07:00 +27°C° 0.1 mm 4 mps 760 mmHg 81%
    08:00 +28°C° 0.1 mm 4 mps 760 mmHg 74%
    09:00 +29°C° 0.1 mm 5 mps 760 mmHg 68%
    10:00 +32°C° 0.1 mm 5 mps 760 mmHg 62%
    11:00 +32°C° 0.1 mm 5 mps 760 mmHg 60%
    12:00 +33°C° 0.1 mm 5 mps 760 mmHg 58%
    13:00 +33°C° 0.1 mm 5 mps 759 mmHg 56%
    14:00 +33°C° 0 mm 5 mps 759 mmHg 57%
    15:00 +33°C° 0 mm 5 mps 759 mmHg 57%
    16:00 +32°C° 0 mm 5 mps 758 mmHg 58%
    17:00 +30°C° 0 mm 5 mps 759 mmHg 63%
    18:00 +29°C° 0 mm 4 mps 759 mmHg 68%
    19:00 +28°C° 0 mm 4 mps 759 mmHg 74%
    20:00 +28°C° 0 mm 4 mps 760 mmHg 76%
    21:00 +27°C° 0 mm 4 mps 760 mmHg 79%
    22:00 +27°C° 0 mm 3 mps 761 mmHg 82%
    23:00 +27°C° 0 mm 3 mps 760 mmHg 83%

    15 December, Saturday

    Time Temperature Precipitation Wind Pressure Humidity
    00:00 +26°C° 0 mm 3 mps 760 mmHg 84%
    01:00 +26°C° 0 mm 3 mps 760 mmHg 85%
    02:00 +26°C° 0.1 mm 3 mps 760 mmHg 85%
    03:00 +26°C° 0.1 mm 3 mps 760 mmHg 84%
    04:00 +26°C° 0.1 mm 3 mps 760 mmHg 84%
    05:00 +26°C° 0.2 mm 3 mps 760 mmHg 83%
    06:00 +27°C° 0.2 mm 4 mps 761 mmHg 81%
    07:00 +27°C° 0.2 mm 4 mps 761 mmHg 80%
    08:00 +28°C° 0.1 mm 4 mps 761 mmHg 74%
    09:00 +29°C° 0.1 mm 5 mps 761 mmHg 68%
    10:00 +32°C° 0.1 mm 5 mps 762 mmHg 62%
    11:00 +32°C° 0.1 mm 5 mps 761 mmHg 60%
    12:00 +33°C° 0.1 mm 5 mps 761 mmHg 57%
    13:00 +33°C° 0.1 mm 5 mps 760 mmHg 54%
    14:00 +33°C° 0 mm 5 mps 760 mmHg 55%
    15:00 +33°C° 0 mm 5 mps 759 mmHg 56%
    16:00 +33°C° 0 mm 5 mps 758 mmHg 57%
    17:00 +30°C° 0 mm 5 mps 759 mmHg 63%
    18:00 +29°C° 0 mm 4 mps 759 mmHg 69%
    19:00 +28°C° 0 mm 4 mps 759 mmHg 74%
    20:00 +27°C° 0 mm 4 mps 760 mmHg 77%
    21:00 +27°C° 0 mm 4 mps 760 mmHg 80%
    22:00 +27°C° 0 mm 4 mps 761 mmHg 83%
    23:00 +26°C° 0.1 mm 4 mps 761 mmHg 84%

    16 December, Sunday

    Time Temperature Precipitation Wind Pressure Humidity
    00:00 +26°C° 0.1 mm 3 mps 761 mmHg 85%
    01:00 +26°C° 0.1 mm 3 mps 760 mmHg 85%
    02:00 +26°C° 0.1 mm 3 mps 760 mmHg 86%
    03:00 +26°C° 0.1 mm 3 mps 760 mmHg 86%
    04:00 +26°C° 0.1 mm 3 mps 760 mmHg 86%
    05:00 +26°C° 0 mm 3 mps 761 mmHg 85%
    06:00 +26°C° 0 mm 3 mps 761 mmHg 84%
    07:00 +27°C° 0 mm 3 mps 761 mmHg 83%
    08:00 +28°C° 0 mm 3 mps 761 mmHg 76%
    09:00 +29°C° 0 mm 4 mps 761 mmHg 69%
    10:00 +32°C° 0 mm 4 mps 761 mmHg 63%
    11:00 +32°C° 0 mm 4 mps 761 mmHg 61%
    12:00 +33°C° 0 mm 4 mps 761 mmHg 58%
    13:00 +33°C° 0 mm 5 mps 760 mmHg 56%
    14:00 +33°C° 0 mm 5 mps 760 mmHg 57%
    15:00 +33°C° 0 mm 5 mps 759 mmHg 58%
    16:00 +32°C° 0 mm 5 mps 759 mmHg 59%
    17:00 +30°C° 0 mm 4 mps 759 mmHg 64%
    18:00 +29°C° 0 mm 4 mps 759 mmHg 69%
    19:00 +28°C° 0 mm 4 mps 760 mmHg 75%
    20:00 +28°C° 0 mm 4 mps 760 mmHg 77%
    21:00 +27°C° 0 mm 3 mps 760 mmHg 80%
    22:00 +27°C° 0 mm 3 mps 760 mmHg 83%
    23:00 +27°C° 0 mm 3 mps 760 mmHg 84%
    Show more